Change the Weather History Date:

Saturday, December 15, 2012

  Actual Average Record
Temperature  
Mean Temperature 35 °F -  
Max Temperature 37 °F 34 °F 77 °F (2014)
Min Temperature 33 °F 20 °F -7 °F (2010)
Degree Days  
Heating Degree Days 30    
Moisture  
Dew Point 34 °F    
Average Humidity 91    
Maximum Humidity 93    
Minimum Humidity 75    
Precipitation  
Precipitation 0.26 in - - ()
Sea Level Pressure  
Sea Level Pressure 29.61 in    
Wind  
Wind Speed 5 mph (SE)    
Max Wind Speed 10 mph    
Max Gust Speed -    
Visibility 4 miles    
Events Fog , Rain    
Averages and records for this station are not official NWS values.
T = Trace of Precipitation, MM = Missing Value Source: NWS Daily Summary

Daily Weather History Graph

Daily Weather History Graph

Search for Another Location

Airport or City:

Trip Planner

Search our weather history database for the weather conditions in past years. The results will help you decide how hot, cold, wet, or windy it might be!

Date:

Astronomy

Dec. 15, 2012 Rise Set
Actual Time 7:35 AM CST 4:29 PM CST
Civil Twilight 7:02 AM CST 5:02 PM CST
Nautical Twilight 6:25 AM CST 5:38 PM CST
Astronomical Twilight 5:50 AM CST 6:14 PM CST
Moon 9:24 AM CST (12/15) 7:38 PM CST (12/15)
Length of Visible Light 10h 00m
Length of Day
8h 53m
Waxing Crescent, 8% of the Moon is Illuminated
Dec 15
Waxing Crescent
Dec 19
First Quarter
Dec 28
Full
Jan 4
Last Quarter
Jan 11
New

Hourly Weather History & Observations

Time (CST) Temp. Windchill Dew Point Humidity Pressure Visibility Wind Dir Wind Speed Gust Speed Precip Events Conditions
12:13 AM 37.4 °F 32.1 °F 30.2 °F 75% 29.85 in 10.0 mi SSE 6.9 mph - N/A   Overcast
12:33 AM 37.4 °F 32.8 °F 30.2 °F 75% 29.86 in 10.0 mi SSE 5.8 mph - N/A   Overcast
12:53 AM 37.4 °F 32.1 °F 30.2 °F 75% 29.84 in 10.0 mi SSE 6.9 mph - N/A   Overcast
1:13 AM 35.6 °F 29.2 °F 30.2 °F 81% 29.83 in 10.0 mi SSE 8.1 mph - N/A   Overcast
1:33 AM 35.6 °F 28.0 °F 30.2 °F 81% 29.82 in 10.0 mi SE 10.4 mph - N/A   Overcast
1:53 AM 35.6 °F 28.6 °F 30.2 °F 81% 29.82 in 10.0 mi SSE 9.2 mph - N/A   Overcast
2:13 AM 33.8 °F 26.4 °F 30.2 °F 87% 29.82 in 7.0 mi SE 9.2 mph - N/A   Overcast
2:33 AM 35.6 °F 31.7 °F 30.2 °F 81% 29.81 in 10.0 mi SSE 4.6 mph - N/A   Overcast
2:53 AM 33.8 °F 27.7 °F 30.2 °F 87% 29.80 in 10.0 mi SSE 6.9 mph - N/A   Overcast
3:14 AM 35.6 °F 28.0 °F 30.2 °F 81% 29.79 in 10.0 mi SE 10.4 mph - N/A   Overcast
3:33 AM 33.8 °F 26.4 °F 30.2 °F 87% 29.77 in 10.0 mi SE 9.2 mph - N/A   Overcast
3:53 AM 33.8 °F 27.0 °F 30.2 °F 87% 29.77 in 10.0 mi SE 8.1 mph - N/A   Overcast
4:14 AM 33.8 °F 27.0 °F 30.2 °F 87% 29.75 in 7.0 mi SE 8.1 mph - N/A   Overcast
4:33 AM 33.8 °F 26.4 °F 32.0 °F 93% 29.74 in 7.0 mi SE 9.2 mph - N/A   Drizzle
4:53 AM 33.8 °F 27.7 °F 32.0 °F 93% 29.73 in 5.0 mi SSE 6.9 mph - N/A   Drizzle
5:14 AM 33.8 °F 30.8 °F 32.0 °F 93% 29.72 in 5.0 mi SSE 3.5 mph - N/A   Light Drizzle
5:33 AM 33.8 °F 28.6 °F 32.0 °F 93% 29.71 in 4.0 mi SSE 5.8 mph - N/A Rain Light Rain
5:53 AM 33.8 °F 27.7 °F 32.0 °F 93% 29.69 in 4.0 mi SE 6.9 mph - 0.01 in Rain Light Rain
6:14 AM 33.8 °F 27.0 °F 32.0 °F 93% 29.67 in 3.0 mi SE 8.1 mph - 0.02 in Rain Light Rain
6:33 AM 33.8 °F 29.6 °F 32.0 °F 93% 29.66 in 4.0 mi SSE 4.6 mph - 0.04 in Rain Light Rain
6:53 AM 35.6 °F 29.2 °F 33.8 °F 93% 29.65 in 3.0 mi SE 8.1 mph - 0.06 in Rain Light Rain
7:14 AM 33.8 °F 30.8 °F 32.0 °F 93% 29.66 in 2.5 mi SSE 3.5 mph - 0.03 in Rain Light Rain
7:33 AM 35.6 °F 29.9 °F 33.8 °F 93% 29.65 in 3.0 mi SE 6.9 mph - 0.06 in Rain Light Rain
7:53 AM 35.6 °F 30.7 °F 33.8 °F 93% 29.65 in 3.0 mi SSE 5.8 mph - 0.08 in Rain Light Rain
8:14 AM 35.6 °F 29.2 °F 33.8 °F 93% 29.64 in 3.0 mi ESE 8.1 mph - 0.03 in Rain Light Rain
8:33 AM 35.6 °F 32.8 °F 33.8 °F 93% 29.64 in 4.0 mi SE 3.5 mph - 0.05 in Rain Light Rain
8:53 AM 35.6 °F 30.7 °F 33.8 °F 93% 29.64 in 2.5 mi SSE 5.8 mph - 0.05 in Rain Light Rain
9:14 AM 37.4 °F 32.1 °F 35.6 °F 93% 29.63 in 3.0 mi SE 6.9 mph - 0.01 in Rain Light Rain
9:33 AM 35.6 °F 30.7 °F 33.8 °F 93% 29.62 in 4.0 mi SE 5.8 mph - 0.02 in Rain Light Rain
9:53 AM 37.4 °F 32.8 °F 35.6 °F 93% 29.62 in 5.0 mi SE 5.8 mph - 0.04 in Rain Light Rain
10:13 AM 35.6 °F 29.2 °F 33.8 °F 93% 29.61 in 10.0 mi SE 8.1 mph - N/A   Light Drizzle
10:33 AM 37.4 °F 31.4 °F 35.6 °F 93% 29.60 in 10.0 mi SE 8.1 mph - N/A   Light Drizzle
10:53 AM 37.4 °F 31.4 °F 35.6 °F 93% 29.59 in 10.0 mi SE 8.1 mph - N/A   Overcast
11:14 AM 37.4 °F 32.1 °F 35.6 °F 93% 29.57 in 7.0 mi SE 6.9 mph - N/A   Overcast
11:33 AM 37.4 °F 30.8 °F 35.6 °F 93% 29.57 in 10.0 mi SE 9.2 mph - N/A   Overcast
11:53 AM 37.4 °F 32.8 °F 35.6 °F 93% 29.56 in 10.0 mi SE 5.8 mph - N/A   Overcast
12:12 PM 37.4 °F 32.8 °F 35.6 °F 93% 29.55 in 7.0 mi SE 5.8 mph - N/A   Overcast
12:33 PM 37.4 °F 32.8 °F 35.6 °F 93% 29.54 in 2.5 mi SE 5.8 mph - N/A   Overcast
12:53 PM 37.4 °F 33.8 °F 35.6 °F 93% 29.53 in 2.5 mi SE 4.6 mph - N/A   Overcast
1:13 PM 37.4 °F 33.8 °F 35.6 °F 93% 29.52 in 1.8 mi SSE 4.6 mph - N/A   Overcast
1:33 PM 37.4 °F 33.8 °F 35.6 °F 93% 29.52 in 2.0 mi SSE 4.6 mph - N/A   Overcast
1:53 PM 37.4 °F 34.9 °F 35.6 °F 93% 29.51 in 3.0 mi SE 3.5 mph - N/A   Overcast
2:13 PM 37.4 °F 34.9 °F 35.6 °F 93% 29.51 in 2.5 mi SSE 3.5 mph - N/A   Overcast
2:33 PM 37.4 °F 34.9 °F 35.6 °F 93% 29.51 in 1.8 mi SSE 3.5 mph - N/A   Overcast
2:54 PM 37.4 °F - 35.6 °F 93% 29.51 in 1.8 mi Calm Calm - N/A   Overcast
3:13 PM 37.4 °F - 35.6 °F 93% 29.51 in 1.2 mi Calm Calm - N/A   Overcast
3:33 PM 37.4 °F - 35.6 °F 93% 29.51 in 1.2 mi Calm Calm - N/A   Overcast
3:54 PM 37.4 °F - 35.6 °F 93% 29.51 in 1.2 mi Calm Calm - N/A   Overcast
4:13 PM 37.4 °F - 35.6 °F 93% 29.52 in 2.5 mi Calm Calm - N/A   Overcast
4:33 PM 37.4 °F - 35.6 °F 93% 29.52 in 3.0 mi Calm Calm - N/A   Overcast
4:54 PM 37.4 °F - 35.6 °F 93% 29.52 in 2.5 mi Calm Calm - N/A   Overcast
5:13 PM 37.4 °F - 35.6 °F 93% 29.53 in 1.5 mi Calm Calm - N/A   Overcast
5:33 PM 37.4 °F - 35.6 °F 93% 29.53 in 0.8 mi Calm Calm - N/A   Overcast
5:54 PM 37.4 °F - 35.6 °F 93% 29.53 in 0.5 mi Calm Calm - N/A Fog Fog
6:13 PM 37.4 °F - 35.6 °F 93% 29.53 in 0.5 mi Calm Calm - N/A Fog Fog
6:33 PM 37.4 °F - 35.6 °F 93% 29.52 in 0.5 mi Calm Calm - N/A Fog Fog
6:53 PM 37.4 °F - 35.6 °F 93% 29.52 in 0.5 mi Calm Calm - N/A Fog Fog
7:13 PM 37.4 °F - 35.6 °F 93% 29.52 in 0.8 mi Calm Calm - N/A   Overcast
7:33 PM 37.4 °F - 35.6 °F 93% 29.53 in 0.8 mi Calm Calm - N/A   Overcast
7:53 PM 37.4 °F - 35.6 °F 93% 29.53 in 1.0 mi Calm Calm - N/A   Overcast
8:13 PM 37.4 °F - 35.6 °F 93% 29.52 in 0.8 mi Calm Calm - N/A   Overcast
8:33 PM 37.4 °F - 35.6 °F 93% 29.52 in 0.5 mi Calm Calm - N/A Fog Fog
8:53 PM 37.4 °F - 35.6 °F 93% 29.52 in 0.5 mi Calm Calm - N/A Fog Fog
9:14 PM 37.4 °F - 35.6 °F 93% 29.52 in 0.5 mi Calm Calm - N/A Fog Fog
9:33 PM 37.4 °F - 35.6 °F 93% 29.52 in 0.2 mi Calm Calm - N/A Fog Fog
9:53 PM 37.4 °F - 35.6 °F 93% 29.52 in 0.5 mi Calm Calm - N/A Fog Fog
10:14 PM 35.6 °F - 33.8 °F 93% 29.52 in 0.5 mi Calm Calm - N/A Fog Fog
10:33 PM 35.6 °F - 33.8 °F 93% 29.51 in 0.5 mi Calm Calm - N/A Fog Fog
10:53 PM 35.6 °F - 33.8 °F 93% 29.52 in 0.8 mi Calm Calm - N/A   Overcast
11:14 PM 35.6 °F - 33.8 °F 93% 29.52 in 1.2 mi Calm Calm - N/A Rain Rain
11:33 PM 35.6 °F - 33.8 °F 93% 29.52 in 1.5 mi Calm Calm - 0.01 in Rain Rain
11:53 PM 35.6 °F - 33.8 °F 93% 29.52 in 1.8 mi Calm Calm - 0.02 in Rain Rain